When you browse on this site, cookies collect data to enhance your experience and personalize the content and advertising you see.
Visit our Privacy Policy to learn more. By continuing to use the site, you agree to this use of cookies and data.
  • In France
  • List of Countries
  • For 7 days
  • Water Temperature
  • Weather Map
  • Weather Widgets
  • user-avatar
    Login

    Hourly Weather Ashtarak

    Today, 25 February, Tuesday

    Time Temperature Precipitation Wind Pressure Humidity
    00:00 +3°C° 0 mm 2 mps 652 mmHg 82%
    01:00 +3°C° 0 mm 2 mps 652 mmHg 82%
    02:00 +2°C° 0 mm 2 mps 651 mmHg 82%
    03:00 +2°C° 0 mm 2 mps 651 mmHg 82%
    04:00 +2°C° 0.2 mm 2 mps 651 mmHg 81%
    05:00 +2°C° 0.2 mm 2 mps 650 mmHg 80%
    06:00 +3°C° 0.2 mm 2 mps 650 mmHg 79%
    07:00 +2°C° 0.2 mm 3 mps 650 mmHg 78%
    08:00 +3°C° 0.2 mm 3 mps 650 mmHg 76%
    09:00 +3°C° 0 mm 3 mps 651 mmHg 74%
    10:00 +3°C° 1 mm 3 mps 651 mmHg 77%
    11:00 +1°C° 1 mm 4 mps 650 mmHg 80%
    12:00 +1°C° 1 mm 5 mps 650 mmHg 83%
    13:00 +1°C° 0.8 mm 4 mps 651 mmHg 79%
    14:00 0°C° 0.8 mm 4 mps 651 mmHg 76%
    15:00 0°C° 0 mm 4 mps 652 mmHg 70%
    16:00 0°C° 0 mm 3 mps 652 mmHg 68%
    17:00 -1°C° 0 mm 3 mps 653 mmHg 65%
    18:00 -2°C° 0 mm 3 mps 654 mmHg 62%
    19:00 -4°C° 0 mm 3 mps 654 mmHg 58%
    20:00 -5°C° 0 mm 3 mps 655 mmHg 55%
    21:00 -4°C° 0 mm 2 mps 655 mmHg 51%
    22:00 -5°C° 0 mm 2 mps 656 mmHg 50%
    23:00 -5°C° 0 mm 2 mps 656 mmHg 49%

    Tomorrow, 26 February, Wednesday

    Time Temperature Precipitation Wind Pressure Humidity
    00:00 -5°C° 0 mm 2 mps 656 mmHg 48%
    01:00 -5°C° 0 mm 2 mps 656 mmHg 47%
    02:00 -6°C° 0 mm 2 mps 656 mmHg 47%
    03:00 -4°C° 0 mm 1 mps 656 mmHg 46%
    04:00 -4°C° 0 mm 1 mps 656 mmHg 46%
    05:00 -4°C° 0 mm 1 mps 656 mmHg 45%
    06:00 -4°C° 0 mm 1 mps 656 mmHg 45%
    07:00 -3°C° 0 mm 1 mps 656 mmHg 46%
    08:00 -2°C° 0 mm 1 mps 657 mmHg 47%
    09:00 0°C° 0 mm 1 mps 658 mmHg 48%
    10:00 +1°C° 0 mm 1 mps 658 mmHg 47%
    11:00 +2°C° 0 mm 1 mps 658 mmHg 46%
    12:00 +3°C° 0 mm 1 mps 658 mmHg 45%
    13:00 +3°C° 0 mm 1 mps 658 mmHg 46%
    14:00 +4°C° 0 mm 1 mps 658 mmHg 46%
    15:00 +4°C° 0 mm 1 mps 658 mmHg 47%
    16:00 +3°C° 0 mm 1 mps 658 mmHg 48%
    17:00 +2°C° 0 mm 1 mps 658 mmHg 50%
    18:00 0°C° 0 mm 1 mps 658 mmHg 52%
    19:00 0°C° 0 mm 1 mps 659 mmHg 50%
    20:00 0°C° 0 mm 1 mps 659 mmHg 48%
    21:00 0°C° 0 mm 1 mps 660 mmHg 46%
    22:00 -3°C° 0 mm 2 mps 660 mmHg 46%
    23:00 -3°C° 0 mm 2 mps 660 mmHg 46%

    Day after tomorrow, 27 February, Thursday

    Time Temperature Precipitation Wind Pressure Humidity
    00:00 -3°C° 0 mm 2 mps 660 mmHg 46%
    01:00 -3°C° 0 mm 2 mps 660 mmHg 47%
    02:00 -1°C° 0 mm 1 mps 660 mmHg 48%
    03:00 -2°C° 0 mm 1 mps 660 mmHg 48%
    04:00 -2°C° 0 mm 1 mps 660 mmHg 48%
    05:00 -2°C° 0 mm 1 mps 659 mmHg 47%
    06:00 -2°C° 0 mm 1 mps 659 mmHg 47%
    07:00 0°C° 0 mm 1 mps 660 mmHg 47%
    08:00 +1°C° 0 mm 1 mps 660 mmHg 47%
    09:00 +2°C° 0 mm 1 mps 660 mmHg 47%
    10:00 +3°C° 0 mm 1 mps 660 mmHg 48%
    11:00 +4°C° 0 mm 1 mps 660 mmHg 48%
    12:00 +5°C° 0 mm 1 mps 660 mmHg 49%
    13:00 +5°C° 0 mm 1 mps 659 mmHg 47%
    14:00 +6°C° 0 mm 1 mps 659 mmHg 46%
    15:00 +6°C° 0 mm 1 mps 658 mmHg 45%
    16:00 +5°C° 0 mm 1 mps 658 mmHg 45%
    17:00 +4°C° 0 mm 1 mps 658 mmHg 44%
    18:00 +3°C° 0 mm 1 mps 658 mmHg 44%
    19:00 +2°C° 0 mm 2 mps 658 mmHg 44%
    20:00 +2°C° 0 mm 2 mps 658 mmHg 44%
    21:00 +2°C° 0 mm 2 mps 658 mmHg 44%
    22:00 +1°C° 0 mm 2 mps 657 mmHg 45%
    23:00 +1°C° 0 mm 2 mps 657 mmHg 45%

    28 February, Friday

    Time Temperature Precipitation Wind Pressure Humidity
    00:00 +1°C° 0 mm 2 mps 656 mmHg 45%
    01:00 +1°C° 0 mm 2 mps 656 mmHg 46%
    02:00 +1°C° 0 mm 2 mps 656 mmHg 46%
    03:00 +1°C° 0 mm 2 mps 655 mmHg 46%
    04:00 -1°C° 0 mm 2 mps 655 mmHg 47%
    05:00 -1°C° 0 mm 2 mps 654 mmHg 47%
    06:00 -1°C° 0 mm 2 mps 654 mmHg 48%
    07:00 +1°C° 0 mm 2 mps 654 mmHg 48%
    08:00 +2°C° 0 mm 2 mps 655 mmHg 47%
    09:00 +3°C° 0 mm 2 mps 655 mmHg 46%
    10:00 +4°C° 0 mm 2 mps 655 mmHg 46%
    11:00 +5°C° 0 mm 2 mps 654 mmHg 46%
    12:00 +6°C° 0 mm 2 mps 654 mmHg 46%
    13:00 +6°C° 0 mm 2 mps 654 mmHg 46%
    14:00 +7°C° 0 mm 2 mps 654 mmHg 46%
    15:00 +7°C° 0 mm 2 mps 654 mmHg 46%
    16:00 +7°C° 0 mm 1 mps 654 mmHg 48%
    17:00 +6°C° 0 mm 1 mps 654 mmHg 50%
    18:00 +5°C° 0 mm 1 mps 654 mmHg 53%
    19:00 +4°C° 0 mm 1 mps 654 mmHg 55%
    20:00 +4°C° 0 mm 1 mps 654 mmHg 57%
    21:00 +4°C° 0 mm 1 mps 655 mmHg 59%
    22:00 +3°C° 0 mm 1 mps 654 mmHg 60%
    23:00 +3°C° 0 mm 1 mps 654 mmHg 61%

    29 February, Saturday

    Time Temperature Precipitation Wind Pressure Humidity
    00:00 +3°C° 0 mm 1 mps 654 mmHg 63%
    01:00 +2°C° 0 mm 1 mps 654 mmHg 64%
    02:00 +2°C° 0 mm 1 mps 653 mmHg 65%
    03:00 +2°C° 0 mm 1 mps 653 mmHg 66%
    04:00 +1°C° 0 mm 2 mps 653 mmHg 67%
    05:00 +1°C° 0 mm 2 mps 653 mmHg 67%
    06:00 +1°C° 0 mm 2 mps 653 mmHg 68%
    07:00 +3°C° 0 mm 1 mps 653 mmHg 65%
    08:00 +5°C° 0 mm 1 mps 653 mmHg 62%
    09:00 +6°C° 0 mm 1 mps 653 mmHg 60%
    10:00 +7°C° 0 mm 1 mps 653 mmHg 59%
    11:00 +7°C° 0 mm 1 mps 652 mmHg 59%
    12:00 +8°C° 0 mm 1 mps 652 mmHg 58%
    13:00 +8°C° 0.1 mm 1 mps 651 mmHg 59%
    14:00 +8°C° 0.1 mm 1 mps 651 mmHg 59%
    15:00 +8°C° 0.1 mm 1 mps 650 mmHg 59%
    16:00 +7°C° 0.1 mm 2 mps 650 mmHg 64%
    17:00 +6°C° 0.1 mm 2 mps 649 mmHg 68%
    18:00 +5°C° 0.1 mm 2 mps 649 mmHg 72%
    19:00 +5°C° 0.1 mm 2 mps 649 mmHg 75%
    20:00 +4°C° 0.1 mm 2 mps 649 mmHg 78%
    21:00 +5°C° 0.1 mm 1 mps 649 mmHg 81%
    22:00 +4°C° 0.1 mm 1 mps 649 mmHg 81%
    23:00 +4°C° 0.1 mm 1 mps 649 mmHg 82%

    1 March, Sunday

    Time Temperature Precipitation Wind Pressure Humidity
    00:00 +4°C° 0.1 mm 1 mps 650 mmHg 83%
    01:00 +4°C° 0.4 mm 1 mps 650 mmHg 85%
    02:00 +4°C° 0.4 mm 1 mps 650 mmHg 88%
    03:00 +3°C° 0.4 mm 1 mps 650 mmHg 91%
    04:00 +2°C° 0.7 mm 2 mps 650 mmHg 89%
    05:00 +2°C° 0.7 mm 2 mps 650 mmHg 88%
    06:00 0°C° 0.7 mm 3 mps 650 mmHg 86%
    07:00 0°C° 0.1 mm 3 mps 650 mmHg 80%
    08:00 -1°C° 0.1 mm 4 mps 650 mmHg 73%
    09:00 -1°C° 0.1 mm 4 mps 650 mmHg 67%
    10:00 0°C° 0 mm 4 mps 651 mmHg 63%
    11:00 0°C° 0 mm 4 mps 651 mmHg 59%
    12:00 +1°C° 0 mm 4 mps 651 mmHg 56%
    13:00 +1°C° 0 mm 4 mps 651 mmHg 54%
    14:00 +1°C° 0 mm 4 mps 651 mmHg 52%
    15:00 +1°C° 0 mm 4 mps 651 mmHg 51%
    16:00 0°C° 0 mm 4 mps 651 mmHg 52%
    17:00 -1°C° 0 mm 4 mps 652 mmHg 53%
    18:00 -2°C° 0 mm 4 mps 653 mmHg 55%
    19:00 -2°C° 0 mm 3 mps 653 mmHg 55%
    20:00 -2°C° 0 mm 3 mps 654 mmHg 55%
    21:00 -4°C° 0 mm 3 mps 654 mmHg 55%
    22:00 -4°C° 0 mm 3 mps 655 mmHg 55%
    23:00 -5°C° 0 mm 3 mps 655 mmHg 55%
    Show more